Simultaneous Nadir Overpasses (SNOs) Predictions

Prediction of SNOs between AQUA and METOP-B Satellite Orbit:

Table of predicted SNOs for the next 14.0 days since TLE Epoch: 11/6/2021
Index Date (AQUA) Time (AQUA) Lat,Lon (AQUA) SZA (AQUA ) Date (METOP-B) Time (METOP-B) Lat,Lon (METOP-B) SZA (METOP-B ) Distance(km) Time Diff (sec)
1 11/07/2021 17:40:48 -73.75, 89.20 89.85 11/07/2021 17:40:06 -73.73, 89.13 89.87 2.87 42
2 11/07/2021 18:30:17 73.81,-103.31 90.23 11/07/2021 18:30:44 73.80,-103.36 90.22 1.62 27
3 11/10/2021 13:15:05 -73.77, 155.57 89.02 11/10/2021 13:14:28 -73.75, 155.59 89.04 2.74 37
4 11/10/2021 14:04:33 73.84, -36.94 91.06 11/10/2021 14:05:05 73.82, -36.90 91.05 2.40 32
5 11/13/2021 08:49:20 -73.77,-137.97 88.26 11/13/2021 08:48:49 -73.76,-137.97 88.26 0.27 31
6 11/13/2021 09:38:49 73.84, 29.50 91.82 11/13/2021 09:39:27 73.84, 29.54 91.82 1.19 38
7 11/16/2021 04:23:36 -73.78, -71.56 87.53 11/16/2021 04:23:11 -73.77, -71.54 87.53 0.78 25
8 11/16/2021 05:13:05 73.85, 95.91 92.56 11/16/2021 05:13:49 73.85, 95.98 92.56 2.05 44
9 11/18/2021 23:08:12 73.05,-171.24 92.41 11/18/2021 23:07:07 72.97,-174.25 92.37 98.20 65
10 11/18/2021 23:57:51 -73.76, -5.07 86.87 11/18/2021 23:57:33 -73.78, -5.12 86.85 2.87 18
11 11/19/2021 00:47:20 73.83, 162.39 93.22 11/19/2021 00:48:11 73.85, 162.40 93.24 2.21 51



Historial Predications of SNOs between AQUA and METOP-B
